{"data":{"norad_id":39239,"epoch":"2026-05-25T04:32:37.425984Z","epoch_age_seconds":69085,"freshness":"FRESH","line1":"1 39239U 13046A   26145.18932206 -.00000045  00000+0  44526-4 0  9993","line2":"2 39239  63.3840 149.5608 0424357  11.7554 349.3011 13.45501705625198","mean_motion":13.45501705,"eccentricity":0.0424357,"inclination_deg":63.384,"raan_deg":149.5608,"arg_perigee_deg":11.7554,"mean_anomaly_deg":349.3011,"bstar":4.4526e-5,"rev_number":62519,"period_min":107.02327575274,"perigee_km":771.98775358717,"apogee_km":1405.7217994487,"semimajor_km":7466.991776518,"source":"CELESTRAK","updated_at":"2026-05-25T13:37:55.372880Z"}}